Погода в Волковском

Россия / Калужская область     54°49′27″N   37°12′23″E
темп.,
°C
ветер,
м/с
пор.,
м/с
влажн.,
%
обл.,
%
осадки,
мм/ч
давл.,
гПа
погр.,
м
25 июля, вс
вс2500:00+14всв116298 0.0 101811
03:00+14сз006298 0.0 101911
06:00+15ююз116380 0.0 102032
09:00+20юв11495 0.0 1020633
12:00+22ююв223993 0.0 10202494
15:00+22ююз124143 0.0 10211584
18:00+21ююз224971 0.0 1021441
21:00+17ююз226050 0.0 102115
26 июля, пн
пн2600:00+14юз22660 0.0 102310
03:00+13ю116715 0.0 102310
06:00+16ююв1161100 0.0 102319
09:00+18ююз2357100 0.0 1024126
12:00+21ююз3451100 0.0 1024358
15:00+25ююз134343 0.0 10221498
18:00+23ю225048 0.0 1022261
21:00+19юз237191 0.0 102231
27 июля, вт
вт2700:00+17зюз338232 0.0 102329
03:00+18з227663 0.0 102337
06:00+16з118650 0.7 102325
09:00+22з126431 0.7 1022341
12:00+27зюз234115 0.0 10211956
15:00+25юз115249 0.0 1020130
18:00+23зсз2460100 0.1 1020415
21:00+17зюз338441 0.8 102031
28 июля, ср
ср2800:00+16ююз11878 0.1 101911
03:00+16юз229013 0.1 101817
06:00+17ю2284100 0.1 101744
09:00+22ю3464100 0.1 1016353
12:00+24ю3355100 0.0 1015596
15:00+19ююз2588100 1.3 1014281
18:00+18юв4894100 0.6 1012230
21:00+18ююв4109393 0.9 1010353
29 июля, чт
чт2900:00+18ююз41195100 0.6 1008333
03:00+18з5119889 0.7 1007410
06:00+17з4129518 0.0 1008447
09:00+22з611680 0.0 1008899
12:00+27зсз7104622 0.0 10072122
15:00+28зсз79395 0.0 10072488
18:00+27зсз69445 0.0 10072073
21:00+20зюз33650 0.0 100828